Preview of NWS' New Version of Forecast
This preview is not operational and should not be used for support decisions.

Regional Weather Roundup (RWR)

Issued by National Weather Service (NWS)

                            
000
ASUS42 KTBW 212116
RWRFL 
FLORIDA REGIONAL WEATHER ROUNDUP
NATIONAL WEATHER SERVICE TAMPA BAY RUSKIN FL
500 PM EDT TUE MAY 21 2019

NOTE: "FAIR" INDICATES FEW OR NO CLOUDS BELOW 12,000 FEET WITH NO
SIGNIFICANT WEATHER AND/OR OBSTRUCTIONS TO VISIBILITY.

FLZ001>010-012>015-112-114-115-212200-
PANHANDLE FLORIDA
  
CITY           SKY/WX    TMP DP  RH WIND       PRES   REMARKS
PENSACOLA      FAIR      82  71  69 S14G21    29.93S                  
PENSACOLA NAS  PTSUNNY   83  72  69 S14       29.92S                  
MILTON NAS     FAIR      84  67  56 S12       29.93S                  
CRESTVIEW      FAIR      87  61  41 S10G16    29.94F                  
DUKE FIELD     MOSUNNY   86  64  48 SE10      29.93S                  
MARY ESTHER    MOSUNNY   84  69  60 S12       29.92F                  
PANAMA CITY    FAIR      87  59  38 SE12G21   29.93S                  
TYNDALL AFB    FAIR      84  67  56 S8        29.93S                  
APALACHICOLA   FAIR      85  65  51 S7        29.94S                  

STATION/POSITION SKY/WX   TEMP    WIND        PRES    WAVE   SWELL
                          AIR SEA DIR/SP/G            HT/PER HT/PER
                          (F)     (DEG/KT/KT) (MB)    (FT/S) (FT/S)
30.1N   87.6W                                   N/A     3/ 4
29.2N   88.2W                     150/ 14/ 16 1012.8F   3/ 4
PANAMA CITY BEAC           81 83  190/  7/  8 1014.3S
TOWER C          NOT AVBL

$$
FLZ011-016>038-118-127-128-134-139-239-212200-
NORTH FLORIDA
  
CITY           SKY/WX    TMP DP  RH WIND       PRES   REMARKS
MARIANNA       FAIR      93  57  29 S12       29.90F                  
TALLAHASSEE    FAIR      92  65  40 S14       29.92S                  
PERRY          FAIR      92  64  38 W12       29.92F                  
LIVE OAK       SUNNY     93  61  33 CALM      29.90F                  
CROSS CITY     CLOUDY    85  70  59 SW8       29.92F                  
LAKE CITY      FAIR      93  59  31 CALM      29.91F                  
GAINESVILLE    FAIR      96  60  30 E8        29.92F HX  96           
WILLISTON      FAIR      92  62  35 S8        29.91S                  
PALATKA        PTSUNNY   95  68  41 E12       29.92R HX  99           
MAYPORT NAS    FAIR      85  74  69 SE16      29.93F                  
JACKSONVILLE   FAIR      91  62  37 E12       29.91S                  
JAX NAS        PTSUNNY   93  64  38 E15       29.92F                  
JAX CECIL      PTSUNNY  100  61  27 S6        29.91F HX 101           
FERNANDINA BEA FAIR      84  75  74 SE14      29.93F                  
ST AUGUSTINE   FAIR      84  74  71 SE15      29.95S                  

STATION/POSITION SKY/WX   TEMP    WIND        PRES    WAVE   SWELL
                          AIR SEA DIR/SP/G            HT/PER HT/PER
                          (F)     (DEG/KT/KT) (MB)    (FT/S) (FT/S)
SHELL POINT      NOT AVBL
KEATON BEACH               82     240/  5/  6 1013.9F
CEDAR KEY                  83     260/  6/  9 1013.4F
FERNANDINA                 87 83  120/  8/ 14 1014.2F
30.7N   81.3W                 80                N/A     2/ 4
MAYPORT                    81 82  130/ 11/ 13 1013.9F
31.4N   80.9W              78 79  170/ 12/ 14 1013.7F   2/ 5   2/ 7
ST AUGUSTINE               79 83  120/ 14/ 15 1014.1F

$$
FLZ040-043>046-052-053-057-058-063-144-212200-
INTERIOR CENTRAL FLORIDA
  
CITY           SKY/WX    TMP DP  RH WIND       PRES   REMARKS
OCALA          FAIR      93  64  38 E7        29.91F                  
LEESBURG       FAIR      91  61  36 VRB5      29.92F                  
SANFORD        FAIR      92  62  36 S7        29.92F                  
ORLANDO EXEC   FAIR      92  61  35 E8        29.92F                  
ORLANDO INTL   FAIR      91  61  36 VRB3      29.92F                  
KISSIMMEE      FAIR      90  65  43 VRB5      29.93F                  
WINTER HAVEN   FAIR      92  62  36 E6        29.93F                  
LAKELAND       MOSUNNY   90  63  40 CALM      29.92F                  
BARTOW         MOSUNNY   93  63  36 E8        29.91F                  
SEBRING        FAIR      92  62  37 SE9       29.92F                  
OKEECHOBEE     FAIR      88  70  55 E6        29.92S                  

$$
FLZ041-047-054-059-064-141-147-212200-
EAST CENTRAL FLORIDA
  
CITY           SKY/WX    TMP DP  RH WIND       PRES   REMARKS
ORMOND BEACH   SUNNY     84  72  65 E12       29.94S                  
DAYTONA BEACH  FAIR      87  70  56 SE9       29.93F                  
DELAND         FAIR      90  68  48 E14       29.92S                  
NEW SMYRNA BEA MOSUNNY   86  70  58 SE14      29.95F                  
JFK SPACE CTR  FAIR      86  70  58 SE8       29.94F                  
TITUSVILLE     MOSUNNY   90  66  45 SE12      29.95F                  
CAPE CANAVERAL FAIR      84  56  37 SE12      29.94S                  
PATRICK AFB    FAIR      84  71  64 E13       29.94F                  
MELBOURNE      FAIR      85  70  60 E13       29.94F                  
VERO BEACH     FAIR      85  69  58 E13       29.95F                  
FT PIERCE      FAIR      84  67  56 E13       29.94F                  
STUART         SUNNY     84  66  54 E9        29.96F                  

STATION/POSITION SKY/WX   TEMP    WIND        PRES    WAVE   SWELL
                          AIR SEA DIR/SP/G            HT/PER HT/PER
                          (F)     (DEG/KT/KT) (MB)    (FT/S) (FT/S)
28.5N   80.2W              81     110/  6/  8 1014.8
28.9N   78.5W              79 80  100/  2/  6 1015.6
TRIDENT PIER               84 83  100/  7/ 12 1015.6F
28.4N   80.5W                 81                N/A     2/ 3
27.5N   80.2W                 80                N/A     2/ 7

$$
FLZ050-056-061-142-242-148-248-149-249-151-251-155-255-
160-260-212200-
WEST CENTRAL FLORIDA
  
CITY           SKY/WX    TMP DP  RH WIND       PRES   REMARKS
CRYSTAL RIVER  FAIR      88  72  58 W6        29.91F                  
INVERNESS      FAIR      90  64  43 CALM      29.91F                  
BROOKSVILLE    FAIR      89  70  53 W12       29.92F                  
CLEARWATER AIR FAIR      86  68  54 NW8       29.91F                  
ST PETE CLEARW FAIR      89  71  55 VRB6      29.91F HX  95           
TAMPA INTL     FAIR      89  69  51 W6        29.91F                  
TAMPA EXEC     PTSUNNY   95  64  36 E6        29.91F HX  97           
PLANT CITY     PTSUNNY   91  61  35 E3        29.94S                  
MACDILL AFB    FAIR      88  73  61 SW10      29.91F HX  95           
PETER O KNIGHT CLOUDY    91  68  46 S6        29.91F HX  95           
ST PETERSBURG  FAIR      84  73  69 CALM      29.90F                  
SARASOTA       FAIR      86  72  62 W9        29.91F                  
VENICE         FAIR      88  73  62 W9        29.93F HX  96           

STATION/POSITION SKY/WX   TEMP    WIND        PRES    WAVE   SWELL
                          AIR SEA DIR/SP/G            HT/PER HT/PER
                          (F)     (DEG/KT/KT) (MB)    (FT/S) (FT/S)
27.3N   84.2W                 82                N/A     1/ 7
CLEARWATER BEACH           82 85  250/  7/  8 1013.3F
MIDDLE TAMPA BAY           82     250/  9/ 11 1013.3F
VENICE                     83 82  260/  7/  8 1013.4F

$$
FLZ066-069-070-075>078-162-262-165-265-212200-
SOUTHWEST FLORIDA AND KEYS
  
CITY           SKY/WX    TMP DP  RH WIND       PRES   REMARKS
PUNTA GORDA    CLOUDY    88  71  57 W10       29.92F                  
FT MYERS       PTSUNNY   85  71  63 W13       29.90F                  
SOUTHWEST INTL FAIR      88  71  57 SW15      29.90F                  
NAPLES         FAIR      86  73  65 W9        29.91F                  
MARCO ISLAND   FAIR      86  72  62 W8        29.93R                  
IMMOKALEE      FAIR      93  64  38 NE8G14    29.88F HX  95           
MARATHON       FAIR      90  72  55 SE8       29.92S HX  97           
KEY WEST NAS   FAIR      87  72  60 SE8       29.92S                  
KEY WEST INTL  FAIR      85  73  67 SE8       29.92S                  

STATION/POSITION SKY/WX   TEMP    WIND        PRES    WAVE   SWELL
                          AIR SEA DIR/SP/G            HT/PER HT/PER
                          (F)     (DEG/KT/KT) (MB)    (FT/S) (FT/S)
NAPLES                     88 86              1013.0F
DRY TORTUGAS               82     120/  7/  7 1013.2F
SAND KEY                   81                 1013.1F
SOMBRERO KEY               82                 1012.6F

$$
FLZ067-068-071>074-168-172>174-212200-
SOUTHEAST FLORIDA 
  
CITY           SKY/WX    TMP DP  RH WIND       PRES   REMARKS
W PALM BEACH   FAIR      85  69  58 E17       29.95F                  
BOCA RATON     SUNNY     88  72  58 SE14      29.94S                  
FT LAUDER-EXEC FAIR      87  67  51 E13       29.93S                  
FT LAUDERDALE  FAIR      85  68  56 E13       29.92F                  
POMPANO BEACH  FAIR      86  68  54 E13       29.93F                  
PEMBROKE PINES FAIR      86  67  52 E15G21    29.94S                  
OPA LOCKA      FAIR      88  65  46 E13       29.93F                  
MIAMI          FAIR      88  64  44 E15       29.93S                  
WEST KENDALL   FAIR      88  67  49 SE12      29.92S                  
HOMESTEAD      FAIR      85  71  61 E12       29.92S                  

STATION/POSITION SKY/WX   TEMP    WIND        PRES    WAVE   SWELL
                          AIR SEA DIR/SP/G            HT/PER HT/PER
                          (F)     (DEG/KT/KT) (MB)    (FT/S) (FT/S)
PORT EVERGLADES            84      90/  6/ 10 1013.7
VIRGINIA KEY               83 86   70/  8/ 11 1013.2F
LAKE WORTH                 80 83              1015.1F
SETTLEMENT POINT           80      40/  8/  8 1014.9F

$$